Starlink 33634

operational
NORAD ID: 63377 Int'l Des: 2025-063 Owner: SPXS Country: US Constellation: starlink
LEOCIRCULAR

About Starlink 33634

Description loading...

Live Position

Loading 3D Globe...

Upcoming Passes

Altitude History

Altitude vs Time

uPlot chart will show altitude changes over time

Two-Line Element Set

1 63377U 25063Q 25304.24680010 .00031985 00000-0 10876-2 0 9997
2 63377 53.1601 293.5356 0001396 92.5452 267.5708 15.30194518 34945
Epoch: Oct 31, 2025 • Age: 8 hours

Current Status

Altitude 488.0 km
Velocity 7.62 km/s
Sub-Earth Point -37.36°S, 14.08°E
Launch Date Mar 26, 2025
Age 0.5 years
Type internet

Technical Details

Classification Payload
Mass 575.00 kg
Dry Mass 530.00 kg
Total Mass 575.00 kg
Length 0.30 m
Diameter 4.10 m
Span 29.00 m
Shape Box + pan
Manufacturer SPXS
Bus Type Starlink V2MO
Phase Status In Orbit
Owner/State SPXS/US

Large Constellations

Loading constellations...